| time (UTC) | temp F | wind direction | speed knots | gust knots | rain 1hr in | rain 24hr in | rain mn in | humidity % | barometer mb |
| 20260504080949 | 49 | 179 | 0.0 | 0.0 | 0.00 | 0.00 | 0.00 | ||
| 20260504045504 | 48 | 179 | 0.0 | 0.0 | 0.00 | 0.01 | 0.00 | ||
| 20260504044005 | 48 | 179 | 0.0 | 0.0 | 0.00 | 0.01 | 0.00 | ||
| 20260504042506 | 50 | 179 | 0.0 | 0.0 | 0.00 | 0.01 | 0.00 | ||
| 20260504041007 | 50 | 179 | 0.0 | 0.0 | 0.00 | 0.01 | 0.00 | ||
| 20260504035508 | 50 | 179 | 0.0 | 0.0 | 0.00 | 0.01 | 0.00 | ||
| 20260504034010 | 51 | 179 | 0.0 | 0.0 | 0.00 | 0.01 | 0.00 | ||
| 20260504032511 | 50 | 329 | 0.0 | 0.0 | 0.00 | 0.01 | 0.00 | ||
| 20260504031012 | 50 | 329 | 0.0 | 0.0 | 0.00 | 0.01 | 0.00 | ||
| 20260504025513 | 51 | 329 | 0.0 | 0.0 | 0.00 | 0.01 | 0.00 | ||
| 20260504024014 | 53 | 329 | 0.0 | 0.0 | 0.00 | 0.01 | 0.00 | ||
| 20260504022515 | 54 | 329 | 0.0 | 0.0 | 0.00 | 0.01 | 0.00 | ||
| 20260504021016 | 54 | 293 | 2.6 | 0.0 | 0.00 | 0.01 | 0.00 | ||
| 20260504015517 | 54 | 357 | 0.9 | 5.2 | 0.00 | 0.01 | 0.00 | ||
| 20260504014018 | 57 | 259 | 7.8 | 7.0 | 0.00 | 0.01 | 0.00 | ||
| 20260504012518 | 62 | 284 | 4.3 | 4.3 | 0.00 | 0.01 | 0.00 | ||
| 20260504011019 | 63 | 316 | 4.3 | 5.2 | 0.00 | 0.01 | 0.00 | ||
| 20260504005520 | 63 | 335 | 6.1 | 5.2 | 0.00 | 0.01 | 0.00 | ||
| 20260504004020 | 67 | 339 | 6.1 | 6.1 | 0.00 | 0.01 | 0.00 | ||
| 20260504002521 | 64 | 314 | 4.3 | 7.0 | 0.00 | 0.01 | 0.00 | ||
| 20260504001022 | 66 | 11 | 4.3 | 3.5 | 0.00 | 0.01 | 0.00 | ||
| 20260503235523 | 65 | 315 | 3.5 | 7.0 | 0.00 | 0.01 | 0.00 | ||
| 20260503234023 | 66 | 305 | 7.0 | 5.2 | 0.00 | 0.01 | 0.00 | ||
| 20260503232524 | 70 | 329 | 5.2 | 7.8 | 0.00 | 0.01 | 0.00 | ||
| 20260503231025 | 71 | 359 | 6.1 | 4.3 | 0.00 | 0.01 | 0.00 | ||
| 20260503225525 | 71 | 322 | 6.1 | 8.7 | 0.00 | 0.01 | 0.00 | ||
| 20260503224026 | 72 | 347 | 6.1 | 7.0 | 0.00 | 0.01 | 0.00 | ||
| 20260503222527 | 71 | 342 | 4.3 | 10.4 | 0.00 | 0.01 | 0.00 | ||
| 20260503221027 | 71 | 51 | 7.8 | 4.3 | 0.00 | 0.01 | 0.00 | ||
| 20260503215528 | 70 | 4 | 5.2 | 5.2 | 0.00 | 0.01 | 0.00 | ||
| 20260503214029 | 70 | 332 | 7.0 | 5.2 | 0.00 | 0.01 | 0.00 | ||
| 20260503212529 | 71 | 308 | 6.1 | 5.2 | 0.00 | 0.01 | 0.00 | ||
| 20260503211030 | 71 | 359 | 7.0 | 6.1 | 0.00 | 0.01 | 0.00 | ||
| 20260503204032 | 69 | 359 | 6.1 | 6.1 | 0.00 | 0.01 | 0.00 | ||
| 20260503201033 | 69 | 350 | 2.6 | 5.2 | 0.00 | 0.01 | 0.00 | ||
| 20260503195534 | 67 | 291 | 5.2 | 7.8 | 0.00 | 0.01 | 0.00 | ||
| 20260503194035 | 67 | 21 | 3.5 | 2.6 | 0.00 | 0.01 | 0.00 | ||
| 20260503192536 | 66 | 335 | 2.6 | 2.6 | 0.00 | 0.01 | 0.00 | ||
| 20260503191037 | 65 | 323 | 3.5 | 3.5 | 0.00 | 0.01 | 0.00 | ||
| 20260503185537 | 64 | 3 | 2.6 | 1.7 | 0.00 | 0.01 | 0.00 | ||
| 20260503184039 | 63 | 347 | 4.3 | 1.7 | 0.00 | 0.01 | 0.00 | ||
| 20260503172545 | 60 | 352 | 3.5 | 5.2 | 0.00 | 0.01 | 0.00 | ||
| 20260503131108 | 42 | 8 | 0.0 | 0.0 | 0.00 | 0.01 | 0.00 |